Date String (YYYY-MM-DD hh:mm:ss) UTC,Instrument flags,Ambient pressure (hPa),Sample flow (lpm),Bypass flow (lpm),Sample temperature (°C),Ambient temperature (°C),ASC tube jacket temperature (°C),LED temperature (°C),Box temperature (°C),Sample RH (%),Span deviation,Mass concentration (μg/m³),Mass concentration (μg/m³),Mass concentration (μg/m³)
DateTimeUTC,F1_M11,P_M11,Q1_M11,Q2_M11,T1_M11,T2_M11,T3_M11,T4_M11,T5_M11,U1_M11,ZSPAN_M11,X2_M11,X0_M11,X1_M11
2021-12-09 12:00:00,,0813.8,4.98,0.00,22.5,21.8,00.0,31.5,24.3,14.6,0000.0,0000.52,0001.28,0000.29
2021-12-09 12:01:00,,0813.6,5.01,0.00,22.5,21.8,00.0,31.5,24.2,14.7,0000.0,0000.48,0001.19,0000.28
2021-12-09 12:02:00,,0813.6,5.00,0.00,22.5,21.8,00.0,31.5,24.2,14.8,0000.0,0000.46,0001.13,0000.28
2021-12-09 12:03:00,,0813.6,4.98,0.00,22.5,21.8,00.0,31.5,24.2,14.9,0000.0,0000.47,0001.15,0000.28
2021-12-09 12:04:00,,0813.6,5.01,0.00,22.5,21.8,00.0,31.5,24.2,14.9,0000.0,0000.46,0000.80,0000.29
2021-12-09 12:05:00,,0813.6,4.99,0.00,22.5,21.8,00.0,31.5,24.3,14.9,0000.0,0000.42,0000.64,0000.28
2021-12-09 12:06:00,,0813.6,5.00,0.00,22.5,21.8,00.0,31.5,24.3,14.9,0000.0,0000.41,0000.60,0000.27
2021-12-09 12:07:00,,0813.6,5.00,0.00,22.5,21.8,00.0,31.5,24.3,15.0,0000.0,0000.42,0000.76,0000.26
2021-12-09 12:08:00,,0813.6,4.99,0.00,22.6,21.8,00.0,31.5,24.3,15.0,0000.0,0000.43,0000.81,0000.26
2021-12-09 12:09:00,,0813.6,5.00,0.00,22.6,21.8,00.0,31.5,24.3,15.1,0000.0,0000.43,0000.84,0000.26
2021-12-09 12:10:00,,0813.6,5.00,0.00,22.6,21.8,00.0,31.5,24.3,15.1,0000.0,0000.40,0000.79,0000.26
2021-12-09 12:11:00,,0813.6,5.02,0.00,22.6,21.9,00.0,31.5,24.4,15.1,0000.0,0000.41,0000.84,0000.26
2021-12-09 12:12:00,,0813.5,4.99,0.00,22.6,21.9,00.0,31.5,24.3,15.1,0000.0,0000.41,0000.86,0000.26
2021-12-09 12:13:00,,0813.6,5.01,0.00,22.6,21.9,00.0,31.5,24.3,15.1,0000.0,0000.45,0000.97,0000.27
2021-12-09 12:14:00,,0813.7,5.00,0.00,22.6,21.9,00.0,31.5,24.3,15.2,0000.0,0000.46,0000.98,0000.27
2021-12-09 12:15:00,,0813.6,4.99,0.00,22.6,21.9,00.0,31.5,24.3,15.1,0000.0,0000.45,0001.11,0000.27
2021-12-09 12:16:00,,0813.7,5.02,0.00,22.6,21.9,00.0,31.6,24.3,15.1,0000.0,0000.48,0001.15,0000.27
2021-12-09 12:17:00,,0813.5,5.00,0.00,22.6,21.9,00.0,31.6,24.3,15.1,0000.0,0000.48,0001.16,0000.27
2021-12-09 12:18:00,,0813.5,4.99,0.00,22.6,21.8,00.0,31.6,24.3,14.9,0000.0,0000.46,0001.03,0000.27
2021-12-09 12:19:00,,0813.4,5.01,0.00,22.6,21.8,00.0,31.6,24.3,14.9,0000.0,0000.44,0000.93,0000.27
2021-12-09 12:20:00,,0813.4,5.01,0.00,22.6,21.8,00.0,31.6,24.3,14.9,0000.0,0000.42,0000.86,0000.28
2021-12-09 12:21:00,,0813.4,4.98,0.00,22.6,21.8,00.0,31.6,24.3,14.9,0000.0,0000.43,0000.86,0000.29
2021-12-09 12:22:00,,0813.4,5.01,0.00,22.5,21.8,00.0,31.6,24.2,14.9,0000.0,0000.41,0000.80,0000.29
2021-12-09 12:23:00,,0813.4,4.99,0.00,22.5,21.7,00.0,31.6,24.2,14.9,0000.0,0000.40,0000.77,0000.29
2021-12-09 12:24:00,,0813.5,5.01,0.00,22.5,21.7,00.0,31.6,24.2,15.0,0000.0,0000.35,0000.66,0000.27
2021-12-09 12:25:00,,0813.5,5.01,0.00,22.5,21.7,00.0,31.6,24.2,15.0,0000.0,0000.35,0000.70,0000.27
2021-12-09 12:26:00,,0813.4,4.99,0.00,22.5,21.7,00.0,31.5,24.2,15.1,0000.0,0000.34,0000.57,0000.27
2021-12-09 12:27:00,,0813.3,5.01,0.00,22.5,21.7,00.0,31.5,24.3,15.1,0000.0,0000.35,0000.60,0000.28
2021-12-09 12:28:00,,0813.3,5.00,0.00,22.5,21.7,00.0,31.5,24.2,15.1,0000.0,0000.37,0000.64,0000.29
2021-12-09 12:29:00,,0813.4,4.99,0.00,22.5,21.7,00.0,31.5,24.2,15.2,0000.0,0000.39,0000.70,0000.29
2021-12-09 12:30:00,,0813.4,5.01,0.00,22.5,21.8,00.0,31.5,24.2,15.1,0000.0,0000.41,0000.86,0000.30
2021-12-09 12:31:00,,0813.5,4.99,0.00,22.5,21.8,00.0,31.5,24.2,15.2,0000.0,0000.40,0001.49,0000.29
2021-12-09 12:32:00,,0813.6,5.00,0.00,22.5,21.8,00.0,31.5,24.2,15.1,0000.0,0000.40,0001.51,0000.28
2021-12-09 12:33:00,,0813.6,5.02,0.00,22.5,21.8,00.0,31.5,24.3,15.2,0000.0,0000.41,0001.52,0000.29
2021-12-09 12:34:00,,0813.6,5.00,0.00,22.5,21.8,00.0,31.5,24.3,15.3,0000.0,0000.42,0001.53,0000.29
2021-12-09 12:35:00,,0813.6,4.99,0.00,22.5,21.8,00.0,31.5,24.3,15.3,0000.0,0000.43,0001.56,0000.30
2021-12-09 12:36:00,,0813.6,5.01,0.00,22.6,21.8,00.0,31.5,24.3,15.2,0000.0,0000.45,0001.55,0000.31
2021-12-09 12:37:00,,0813.6,4.99,0.00,22.6,21.8,00.0,31.6,24.4,15.1,0000.0,0000.47,0001.54,0000.30
2021-12-09 12:38:00,,0813.6,4.99,0.00,22.6,21.9,00.0,31.5,24.3,15.2,0000.0,0000.47,0001.56,0000.30
2021-12-09 12:39:00,,0813.7,5.00,0.00,22.6,21.9,00.0,31.6,24.4,15.3,0000.0,0000.46,0001.52,0000.30
2021-12-09 12:40:00,,0814.2,5.00,0.00,22.6,21.9,00.0,31.6,24.4,15.3,0000.0,0000.44,0001.50,0000.30
2021-12-09 12:41:00,,0813.9,5.00,0.00,22.6,21.9,00.0,31.6,24.4,15.4,0000.0,0000.48,0001.72,0000.31
2021-12-09 12:42:00,,0813.6,4.99,0.00,22.6,21.9,00.0,31.6,24.4,15.3,0000.0,0000.49,0001.09,0000.31
2021-12-09 12:43:00,,0813.6,5.01,0.00,22.6,21.9,00.0,31.6,24.4,15.2,0000.0,0000.49,0001.00,0000.31
2021-12-09 12:44:00,,0813.6,5.00,0.00,22.6,21.9,00.0,31.6,24.4,15.3,0000.0,0000.49,0001.83,0000.31
2021-12-09 12:45:00,,0813.6,5.00,0.00,22.6,21.9,00.0,31.6,24.4,15.3,0000.0,0000.49,0002.13,0000.31
2021-12-09 12:46:00,,0813.5,4.98,0.00,22.6,21.9,00.0,31.6,24.4,15.5,0000.0,0000.49,0002.15,0000.30
2021-12-09 12:47:00,,0813.9,5.01,0.00,22.6,21.9,00.0,31.6,24.4,15.7,0000.0,0000.50,0002.21,0000.29
2021-12-09 12:48:00,,0813.8,5.00,0.00,22.6,21.9,00.0,31.6,24.4,15.8,0000.0,0000.48,0002.20,0000.29
2021-12-09 12:49:00,,0813.6,5.00,0.00,22.6,21.9,00.0,31.6,24.4,15.9,0000.0,0000.47,0002.16,0000.29
2021-12-09 12:50:00,,0813.7,4.99,0.00,22.7,21.9,00.0,31.6,24.4,16.1,0000.0,0000.46,0002.15,0000.28
2021-12-09 12:51:00,,0814.2,5.01,0.00,22.7,21.9,00.0,31.6,24.4,16.1,0000.0,0000.47,0002.21,0000.27
2021-12-09 12:52:00,,0814.2,4.99,0.00,22.7,21.9,00.0,31.6,24.4,16.1,0000.0,0000.42,0001.96,0000.26
2021-12-09 12:53:00,,0814.2,4.99,0.00,22.7,22.0,00.0,31.6,24.4,16.1,0000.0,0000.40,0002.80,0000.26
2021-12-09 12:54:00,,0814.1,5.00,0.00,22.7,22.0,00.0,31.6,24.5,15.9,0000.0,0000.43,0003.71,0000.26
2021-12-09 12:55:00,,0814.0,4.99,0.00,22.7,21.9,00.0,31.7,24.5,15.7,0000.0,0000.48,0003.34,0000.25
2021-12-09 12:56:00,,0813.9,5.01,0.00,22.7,21.9,00.0,31.7,24.5,15.5,0000.0,0000.50,0002.76,0000.25
2021-12-09 12:57:00,,0813.9,5.00,0.00,22.7,21.9,00.0,31.7,24.5,15.4,0000.0,0000.50,0002.72,0000.25
2021-12-09 12:58:00,,0814.1,4.99,0.00,22.7,21.9,00.0,31.7,24.5,15.3,0000.0,0000.49,0002.65,0000.25
2021-12-09 12:59:00,,0814.0,5.00,0.00,22.7,22.0,00.0,31.7,24.5,15.1,0000.0,0000.48,0002.69,0000.26
